User: anonymous   Login
Location: �chenoz-la-M�line
(47.6009°N, 6.1354°E)
Time: 19:18:01
(UTC+00:00)
Language:

BREEZE-M (TANK) - Orbit

View from above orbital plane
View from above orbital plane
View from above satellite
View from above satellite

Ground track
Ground track

The orbit data is extracted from the following two-line orbital elements,

1 39124U 13012C   21111.09966502  .00003647  00000-0  55995-3 0  9995
2 39124  49.5530  28.2395 5651838 169.0516 212.1405  4.58666315132702
Epoch (UTC): 21 April 2021 02:23:31
Eccentricity: 0.5651838
inclination: 49.5530°
perigee height: 275 km
apogee height: 17571 km
right ascension of ascending node: 28.2395°
argument of perigee: 169.0516°
revolutions per day: 4.58666315
mean anomaly at epoch: 212.1405°
orbit number at epoch: 13270

The dashed part of the orbit path shows where the satellite is in the earth's shadow,  

DLR